星链-36692(STARLINK-36692)

导读

STARLINK-36692是美国于2026年2月11日发射的星链卫星,星链计划是SpaceX打造的低轨卫星互联网星座,通过数千颗卫星组成网络,为全球提供高速互联网服务,这颗卫星将进一步扩充星链星座规模,助力提升星座覆盖能力与服务稳定性。

Basic Information
目录编号:
67744
目录名称:
STARLINK-36692
国际标识:
2026-026Z
轨道中心:
EARTH
卫星名称:
星链-36692
卫星全名:
星链-36692(STARLINK-36692)
卫星状态:
在轨 (已飞行205 天)
发射日期:
2026-02-11 UTC
国别 :
美国 (US)
星等 :
--
Orbit Information
数据来源 国际轨道数据 AOE轨道数据
星历时间 2026-09-03T23:52:12+0800
17小时前
查看轨道信息
2026-08-31T22:00:00+0800
3天前
查看轨道信息
半长轴 6843.677km 6843.759km
偏心率 0.0001791 0.0001642
轨道倾角 97.285° 97.284°
近地点辐角 167.491° 109.010°
升交点赤经 298.790° 295.755°
平近点角 192.638° 190.863°
近地点 464.314km 464.498km
远地点 466.766km 466.746km
周期 93.906分钟 93.908分钟
每日圈数 15.334463 15.334187
Detailed Information
固有亮度:
5
最大亮度:
2.5
卫星平台:
Starlink V1.0
覆盖范围:
全球
运营商:
太空探索技术公司
运营商所在国:
美国
制造商(研发单位):
太空探索技术公司
制造商所在国:
美国
使用方式:
暂无
Satellite Introduction
Starlink 计划是 SpaceX 推出的全球卫星互联网项目,通过发射低轨道卫星,为全球尤其是偏远地区提供高速、低延迟的互联网服务。自 2019 年起,Starlink 已部署数千颗卫星,旨在缩小全球数字鸿沟,推动互联网普及。该项目还为军事、航空等行业提供通信支持,带来广泛经济效益。
2D Orbit Map
3D Orbit Map
Orbit Altitude Analysis Chart
Orbit Inclination Analysis Chart
Orbit Comprehensive Analysis Chart
View Comprehensive Chart
Conjunction Data List
Event ID Objects TCA Miss Dist (km) Collision Risk Probability Collision Risk Index (CRI) Action
CDM_260904-184005-017906-774421
2026-09-04T
18:40:33+0000
1.803 km
极远距离
3.692788E-6 低风险 0.46
CDM_260906-063204-783406-774421
2026-09-06T
06:32:13+0000
1.967 km
极远距离
2.980939E-6 低风险 0.44
CDM_260906-001504-782706-774421
2026-09-06T
00:15:57+0000
2.467 km
极远距离
1.795765E-6 低风险 0.4
CDM_260906-075504-776006-774421
2026-09-06T
07:55:51+0000
2.924 km
极远距离
1.362781E-6 低风险 0.38
CDM_260905-174504-845506-774421
2026-09-05T
17:45:32+0000
2.833 km
极远距离
1.34068E-6 低风险 0.38
CDM_260904-225904-848206-774421
2026-09-04T
22:59:45+0000
2.950 km
极远距离
1.322922E-6 低风险 0.37
CDM_260904-181704-866206-774421
2026-09-04T
18:17:08+0000
2.803 km
极远距离
1.103028E-6 低风险 0.36